TimeEST,TemperatureF,Dew PointF,Humidity,Sea Level PressureIn,VisibilityMPH,Wind Direction,Wind SpeedMPH,Gust SpeedMPH,PrecipitationIn,Events,Conditions,WindDirDegrees,DateUTC
12:15 AM,42.8,28.4,57,30.33,10.0,Calm,Calm,-,N/A,,Overcast,0,2013-12-01 05:15:00
12:35 AM,42.8,28.4,57,30.32,10.0,Calm,Calm,-,N/A,,Overcast,0,2013-12-01 05:35:00
12:55 AM,42.8,28.4,57,30.31,10.0,Calm,Calm,-,N/A,,Overcast,0,2013-12-01 05:55:00
1:15 AM,42.8,28.4,57,30.31,10.0,Calm,Calm,-,N/A,,Overcast,0,2013-12-01 06:15:00
1:35 AM,42.8,30.2,61,30.31,10.0,Calm,Calm,-,N/A,,Overcast,0,2013-12-01 06:35:00
1:55 AM,42.8,30.2,61,30.30,10.0,Calm,Calm,-,N/A,,Overcast,0,2013-12-01 06:55:00
2:15 AM,42.8,30.2,61,30.30,10.0,Calm,Calm,-,N/A,,Overcast,0,2013-12-01 07:15:00
2:35 AM,42.8,30.2,61,30.29,10.0,SE,4.6,-,N/A,,Overcast,140,2013-12-01 07:35:00
2:55 AM,42.8,30.2,61,30.29,10.0,SE,4.6,-,N/A,,Overcast,130,2013-12-01 07:55:00
3:15 AM,42.8,30.2,61,30.29,10.0,ESE,3.5,-,N/A,,Overcast,120,2013-12-01 08:15:00
3:36 AM,42.8,30.2,61,30.29,10.0,Calm,Calm,-,N/A,,Overcast,0,2013-12-01 08:36:00
3:55 AM,42.8,30.2,61,30.29,10.0,Calm,Calm,-,N/A,,Overcast,0,2013-12-01 08:55:00
4:15 AM,42.8,30.2,61,30.28,10.0,Calm,Calm,-,N/A,,Overcast,0,2013-12-01 09:15:00
4:35 AM,42.8,30.2,61,30.27,10.0,Calm,Calm,-,N/A,,Overcast,0,2013-12-01 09:35:00
4:55 AM,42.8,32.0,66,30.27,10.0,Calm,Calm,-,N/A,,Overcast,0,2013-12-01 09:55:00
5:15 AM,42.8,32.0,66,30.28,10.0,Calm,Calm,-,N/A,,Mostly Cloudy,0,2013-12-01 10:15:00
5:35 AM,41.0,32.0,70,30.27,10.0,Calm,Calm,-,N/A,,Mostly Cloudy,0,2013-12-01 10:35:00
5:55 AM,41.0,32.0,70,30.27,10.0,Calm,Calm,-,N/A,,Scattered Clouds,0,2013-12-01 10:55:00
6:15 AM,39.2,32.0,75,30.26,10.0,Calm,Calm,-,N/A,,Mostly Cloudy,0,2013-12-01 11:15:00
6:35 AM,39.2,32.0,75,30.26,10.0,Calm,Calm,-,N/A,,Mostly Cloudy,0,2013-12-01 11:35:00
6:55 AM,37.4,32.0,81,30.26,10.0,Calm,Calm,-,N/A,,Mostly Cloudy,0,2013-12-01 11:55:00
7:15 AM,37.4,32.0,81,30.26,10.0,Calm,Calm,-,N/A,,Scattered Clouds,0,2013-12-01 12:15:00
7:35 AM,35.6,32.0,87,30.27,10.0,Calm,Calm,-,N/A,,Clear,0,2013-12-01 12:35:00
7:55 AM,35.6,32.0,87,30.28,10.0,Calm,Calm,-,N/A,,Scattered Clouds,0,2013-12-01 12:55:00
8:15 AM,35.6,32.0,87,30.28,10.0,Calm,Calm,-,N/A,,Clear,0,2013-12-01 13:15:00
8:35 AM,37.4,33.8,87,30.27,10.0,Calm,Calm,-,N/A,,Clear,0,2013-12-01 13:35:00
8:55 AM,41.0,33.8,76,30.26,10.0,Calm,Calm,-,N/A,,Clear,0,2013-12-01 13:55:00
9:15 AM,42.8,32.0,66,30.26,10.0,Calm,Calm,-,N/A,,Clear,0,2013-12-01 14:15:00
9:35 AM,42.8,32.0,66,30.26,10.0,Calm,Calm,-,N/A,,Clear,0,2013-12-01 14:35:00
9:55 AM,44.6,32.0,61,30.26,10.0,SSE,3.5,-,N/A,,Clear,150,2013-12-01 14:55:00
10:15 AM,44.6,32.0,61,30.26,10.0,Calm,Calm,-,N/A,,Clear,0,2013-12-01 15:15:00
10:35 AM,46.4,33.8,62,30.26,10.0,Calm,Calm,-,N/A,,Clear,0,2013-12-01 15:35:00
10:55 AM,48.2,33.8,58,30.25,10.0,Calm,Calm,-,N/A,,Clear,0,2013-12-01 15:55:00
11:15 AM,50.0,33.8,54,30.25,10.0,Calm,Calm,-,N/A,,Clear,0,2013-12-01 16:15:00
11:35 AM,50.0,35.6,58,30.23,10.0,Calm,Calm,-,N/A,,Clear,0,2013-12-01 16:35:00
11:55 AM,51.8,35.6,54,30.22,10.0,Calm,Calm,-,N/A,,Clear,0,2013-12-01 16:55:00
12:15 PM,53.6,37.4,54,30.21,10.0,West,3.5,-,N/A,,Clear,260,2013-12-01 17:15:00
12:35 PM,55.4,37.4,51,30.19,10.0,WSW,4.6,-,N/A,,Clear,250,2013-12-01 17:35:00
12:55 PM,55.4,37.4,51,30.18,10.0,WNW,3.5,-,N/A,,Clear,300,2013-12-01 17:55:00
1:15 PM,55.4,37.4,51,30.17,10.0,WNW,3.5,-,N/A,,Clear,300,2013-12-01 18:15:00
1:35 PM,55.4,37.4,51,30.15,10.0,Calm,Calm,-,N/A,,Clear,0,2013-12-01 18:35:00
1:55 PM,55.4,37.4,51,30.14,10.0,Calm,Calm,-,N/A,,Clear,0,2013-12-01 18:55:00
2:15 PM,55.4,35.6,47,30.13,10.0,SW,3.5,-,N/A,,Clear,230,2013-12-01 19:15:00
2:35 PM,55.4,33.8,44,30.13,10.0,West,3.5,-,N/A,,Clear,280,2013-12-01 19:35:00
2:55 PM,55.4,33.8,44,30.12,10.0,West,4.6,-,N/A,,Clear,270,2013-12-01 19:55:00
3:15 PM,53.6,35.6,51,30.12,10.0,NW,4.6,-,N/A,,Clear,320,2013-12-01 20:15:00
3:35 PM,53.6,35.6,51,30.12,10.0,West,3.5,-,N/A,,Clear,280,2013-12-01 20:35:00
3:55 PM,53.6,35.6,51,30.11,10.0,Calm,Calm,-,N/A,,Clear,0,2013-12-01 20:55:00
4:15 PM,53.6,37.4,54,30.11,10.0,West,4.6,-,N/A,,Clear,280,2013-12-01 21:15:00
4:35 PM,53.6,37.4,54,30.10,10.0,Calm,Calm,-,N/A,,Clear,0,2013-12-01 21:35:00
4:55 PM,51.8,37.4,58,30.10,10.0,Calm,Calm,-,N/A,,Clear,0,2013-12-01 21:55:00
5:15 PM,51.8,37.4,58,30.09,10.0,Calm,Calm,-,N/A,,Clear,0,2013-12-01 22:15:00
5:35 PM,50.0,39.2,66,30.08,10.0,Calm,Calm,-,N/A,,Clear,0,2013-12-01 22:35:00
5:55 PM,48.2,39.2,71,30.08,10.0,Calm,Calm,-,N/A,,Clear,0,2013-12-01 22:55:00
6:15 PM,46.4,39.2,76,30.08,10.0,Calm,Calm,-,N/A,,Mostly Cloudy,0,2013-12-01 23:15:00
6:35 PM,46.4,39.2,76,30.08,10.0,Calm,Calm,-,N/A,,Mostly Cloudy,0,2013-12-01 23:35:00
6:55 PM,46.4,39.2,76,30.07,10.0,Calm,Calm,-,N/A,,Scattered Clouds,0,2013-12-01 23:55:00
7:15 PM,44.6,39.2,81,30.07,10.0,Calm,Calm,-,N/A,,Clear,0,2013-12-02 00:15:00
7:35 PM,44.6,39.2,81,30.07,10.0,Calm,Calm,-,N/A,,Clear,0,2013-12-02 00:35:00
7:55 PM,42.8,37.4,81,30.07,10.0,Calm,Calm,-,N/A,,Clear,0,2013-12-02 00:55:00
8:15 PM,42.8,37.4,81,30.06,10.0,Calm,Calm,-,N/A,,Clear,0,2013-12-02 01:15:00
8:35 PM,42.8,39.2,87,30.07,10.0,Calm,Calm,-,N/A,,Scattered Clouds,0,2013-12-02 01:35:00
8:55 PM,42.8,39.2,87,30.06,10.0,Calm,Calm,-,N/A,,Mostly Cloudy,0,2013-12-02 01:55:00
9:15 PM,42.8,39.2,87,30.06,10.0,Calm,Calm,-,N/A,,Mostly Cloudy,0,2013-12-02 02:15:00
9:35 PM,42.8,39.2,87,30.06,10.0,Calm,Calm,-,N/A,,Scattered Clouds,0,2013-12-02 02:35:00
9:55 PM,42.8,39.2,87,30.05,10.0,Calm,Calm,-,N/A,,Scattered Clouds,0,2013-12-02 02:55:00
10:15 PM,42.8,39.2,87,30.05,10.0,Calm,Calm,-,N/A,,Overcast,0,2013-12-02 03:15:00
10:35 PM,42.8,39.2,87,30.05,10.0,Calm,Calm,-,N/A,,Overcast,0,2013-12-02 03:35:00
10:55 PM,44.6,41.0,87,30.05,10.0,Calm,Calm,-,N/A,,Overcast,0,2013-12-02 03:55:00
11:15 PM,42.8,39.2,87,30.05,10.0,Calm,Calm,-,N/A,,Overcast,0,2013-12-02 04:15:00
11:35 PM,42.8,41.0,93,30.04,10.0,Calm,Calm,-,N/A,,Overcast,0,2013-12-02 04:35:00
11:55 PM,44.6,41.0,87,30.03,10.0,Calm,Calm,-,N/A,,Overcast,0,2013-12-02 04:55:00